Time,TemperatureF,DewpointF,PressureIn,WindDirection,WindDirectionDegrees,WindSpeedMPH,WindSpeedGustMPH,Humidity,HourlyPrecipIn,Conditions,Clouds,dailyrainin,SoftwareType,DateUTC
2013-02-09 00:00:00,36.5,26.9,29.85,WNW,298,27.0,27.0,68,0.00,,,0.51,Wunderground v.1.15,2013-02-09 05:00:00,
2013-02-09 00:05:00,36.5,26.9,29.85,WNW,298,31.0,31.0,68,0.00,,,0.00,Wunderground v.1.15,2013-02-09 05:05:00,
2013-02-09 00:08:00,36.4,27.9,29.85,WNW,291,30.0,31.0,71,0.00,,,0.00,Wunderground v.1.15,2013-02-09 05:08:00,
2013-02-09 00:15:00,36.3,27.4,29.85,WNW,302,32.0,33.0,70,0.00,,,0.00,Wunderground v.1.15,2013-02-09 05:15:00,
2013-02-09 00:19:00,36.1,26.9,29.86,WNW,285,27.0,33.0,69,0.00,,,0.00,Wunderground v.1.15,2013-02-09 05:19:00,
2013-02-09 00:24:00,36.0,27.2,29.86,NW,304,28.0,34.0,70,0.00,,,0.00,Wunderground v.1.15,2013-02-09 05:24:00,
2013-02-09 00:29:00,35.8,26.6,29.86,WNW,294,32.0,34.0,69,0.00,,,0.00,Wunderground v.1.15,2013-02-09 05:29:00,
2013-02-09 00:34:00,35.6,26.4,29.86,WNW,294,29.0,37.0,69,0.00,,,0.00,Wunderground v.1.15,2013-02-09 05:34:00,
2013-02-09 00:39:00,35.5,26.3,29.86,WNW,301,27.0,37.0,69,0.00,,,0.00,Wunderground v.1.15,2013-02-09 05:39:00,
2013-02-09 00:45:00,35.5,27.0,29.86,WNW,300,22.0,28.0,71,0.00,,,0.00,Wunderground v.1.15,2013-02-09 05:45:00,
2013-02-09 00:50:00,35.3,26.8,29.86,WNW,296,28.0,28.0,71,0.00,,,0.00,Wunderground v.1.15,2013-02-09 05:50:00,
2013-02-09 00:55:00,35.2,26.0,29.87,WNW,302,26.0,29.0,69,0.00,,,0.00,Wunderground v.1.15,2013-02-09 05:55:00,
2013-02-09 01:00:00,35.1,25.9,29.87,WNW,300,30.0,30.0,69,0.00,,,0.00,Wunderground v.1.15,2013-02-09 06:00:00,
2013-02-09 01:06:00,35.1,26.6,29.87,WNW,296,28.0,30.0,71,0.00,,,0.00,Wunderground v.1.15,2013-02-09 06:06:00,
2013-02-09 01:11:00,34.9,26.1,29.87,NW,309,22.0,27.0,70,0.00,,,0.00,Wunderground v.1.15,2013-02-09 06:11:00,
2013-02-09 01:18:00,34.8,25.7,29.88,WNW,300,27.0,27.0,69,0.00,,,0.00,Wunderground v.1.15,2013-02-09 06:18:00,
2013-02-09 01:23:00,34.7,25.6,29.88,WNW,300,25.0,26.0,69,0.00,,,0.00,Wunderground v.1.15,2013-02-09 06:23:00,
2013-02-09 01:28:00,34.7,25.6,29.89,WNW,301,33.0,33.0,69,0.00,,,0.00,Wunderground v.1.15,2013-02-09 06:28:00,
2013-02-09 01:34:00,34.6,25.5,29.89,NW,311,21.0,27.0,69,0.00,,,0.00,Wunderground v.1.15,2013-02-09 06:34:00,
2013-02-09 01:39:00,34.4,25.3,29.89,NW,308,26.0,27.0,69,0.00,,,0.00,Wunderground v.1.15,2013-02-09 06:39:00,
2013-02-09 01:44:00,34.4,26.0,29.89,NW,320,24.0,27.0,71,0.00,,,0.00,Wunderground v.1.15,2013-02-09 06:44:00,
2013-02-09 01:49:00,34.3,25.9,29.90,NW,312,27.0,32.0,71,0.00,,,0.00,Wunderground v.1.15,2013-02-09 06:49:00,
2013-02-09 01:55:00,34.1,25.3,29.90,NW,312,32.0,32.0,70,0.00,,,0.00,Wunderground v.1.15,2013-02-09 06:55:00,
2013-02-09 02:00:00,33.9,25.1,29.91,NW,315,31.0,31.0,70,0.00,,,0.00,Wunderground v.1.15,2013-02-09 07:00:00,
2013-02-09 02:05:00,33.8,25.4,29.91,NW,304,28.0,35.0,71,0.00,,,0.00,Wunderground v.1.15,2013-02-09 07:05:00,
2013-02-09 02:11:00,33.6,24.5,29.92,WNW,300,33.0,33.0,69,0.00,,,0.00,Wunderground v.1.15,2013-02-09 07:11:00,
2013-02-09 02:16:00,33.5,24.4,29.92,NW,313,33.0,37.0,69,0.00,,,0.00,Wunderground v.1.15,2013-02-09 07:16:00,
2013-02-09 02:22:00,33.2,23.8,29.92,NW,304,35.0,35.0,68,0.00,,,0.00,Wunderground v.1.15,2013-02-09 07:22:00,
2013-02-09 02:27:00,33.3,23.5,29.93,NW,325,32.0,37.0,67,0.00,,,0.00,Wunderground v.1.15,2013-02-09 07:27:00,
2013-02-09 02:32:00,33.3,23.9,29.93,NW,315,34.0,34.0,68,0.00,,,0.00,Wunderground v.1.15,2013-02-09 07:32:00,
2013-02-09 02:38:00,33.1,23.7,29.93,NW,304,38.0,38.0,68,0.00,,,0.00,Wunderground v.1.15,2013-02-09 07:38:00,
2013-02-09 02:43:00,33.1,23.7,29.94,NW,321,31.0,31.0,68,0.00,,,0.00,Wunderground v.1.15,2013-02-09 07:43:00,
2013-02-09 02:49:00,32.9,23.5,29.94,NNW,330,26.0,34.0,68,0.00,,,0.00,Wunderground v.1.15,2013-02-09 07:49:00,
2013-02-09 02:54:00,33.0,23.9,29.94,NW,304,30.0,31.0,69,0.00,,,0.00,Wunderground v.1.15,2013-02-09 07:54:00,
2013-02-09 03:00:00,32.9,23.5,29.94,WNW,300,24.0,26.0,68,0.00,,,0.00,Wunderground v.1.15,2013-02-09 08:00:00,
2013-02-09 03:05:00,32.8,23.0,29.95,WNW,302,23.0,26.0,67,0.00,,,0.00,Wunderground v.1.15,2013-02-09 08:05:00,
2013-02-09 03:11:00,32.8,23.4,29.95,NW,307,26.0,26.0,68,0.00,,,0.00,Wunderground v.1.15,2013-02-09 08:11:00,
2013-02-09 03:16:00,32.7,24.0,29.95,NW,311,24.0,30.0,70,0.00,,,0.00,Wunderground v.1.15,2013-02-09 08:16:00,
2013-02-09 03:22:00,32.5,23.1,29.95,NW,316,30.0,30.0,68,0.00,,,0.00,Wunderground v.1.15,2013-02-09 08:22:00,
2013-02-09 03:28:00,32.5,23.1,29.96,WNW,302,24.0,30.0,68,0.00,,,0.00,Wunderground v.1.15,2013-02-09 08:28:00,
2013-02-09 03:33:00,32.5,22.8,29.96,NW,326,25.0,26.0,67,0.00,,,0.00,Wunderground v.1.15,2013-02-09 08:33:00,
2013-02-09 03:39:00,32.6,23.9,29.96,WNW,295,30.0,36.0,70,0.00,,,0.00,Wunderground v.1.15,2013-02-09 08:39:00,
2013-02-09 03:44:00,32.4,23.4,29.96,NW,323,30.0,30.0,69,0.00,,,0.00,Wunderground v.1.15,2013-02-09 08:44:00,
2013-02-09 03:50:00,32.3,22.6,29.97,NW,318,22.0,33.0,67,0.00,,,0.00,Wunderground v.1.15,2013-02-09 08:50:00,
2013-02-09 03:55:00,32.4,23.7,29.98,NW,314,21.0,27.0,70,0.00,,,0.00,Wunderground v.1.15,2013-02-09 08:55:00,
2013-02-09 04:01:00,32.3,23.3,29.98,NW,311,29.0,29.0,69,0.00,,,0.00,Wunderground v.1.15,2013-02-09 09:01:00,
2013-02-09 04:07:00,32.2,22.5,29.98,WNW,302,23.0,30.0,67,0.00,,,0.00,Wunderground v.1.15,2013-02-09 09:07:00,
2013-02-09 04:13:00,32.2,23.5,29.98,WNW,295,29.0,29.0,70,0.00,,,0.00,Wunderground v.1.15,2013-02-09 09:13:00,
2013-02-09 04:18:00,32.1,23.4,29.99,NW,315,29.0,36.0,70,0.00,,,0.00,Wunderground v.1.15,2013-02-09 09:18:00,
2013-02-09 04:24:00,32.0,22.6,29.99,NW,315,26.0,31.0,68,0.00,,,0.00,Wunderground v.1.15,2013-02-09 09:24:00,
2013-02-09 04:29:00,32.1,23.4,29.99,NW,307,28.0,32.0,70,0.00,,,0.00,Wunderground v.1.15,2013-02-09 09:29:00,
2013-02-09 04:34:00,32.0,22.3,30.00,NW,315,32.0,39.0,67,0.00,,,0.00,Wunderground v.1.15,2013-02-09 09:34:00,
2013-02-09 04:40:00,32.1,23.1,30.00,NW,313,33.0,39.0,69,0.00,,,0.00,Wunderground v.1.15,2013-02-09 09:40:00,
2013-02-09 04:45:00,32.0,22.3,30.00,NW,309,22.0,32.0,67,0.00,,,0.00,Wunderground v.1.15,2013-02-09 09:45:00,
2013-02-09 04:51:00,32.1,22.7,30.01,NW,309,36.0,36.0,68,0.00,,,0.00,Wunderground v.1.15,2013-02-09 09:51:00,
2013-02-09 04:56:00,31.9,22.9,30.01,WNW,300,22.0,28.0,69,0.00,,,0.00,Wunderground v.1.15,2013-02-09 09:56:00,
2013-02-09 05:02:00,31.9,22.5,30.01,WNW,302,28.0,29.0,68,0.00,,,0.00,Wunderground v.1.15,2013-02-09 10:02:00,
2013-02-09 05:08:00,31.8,22.8,30.01,NW,312,24.0,31.0,69,0.00,,,0.00,Wunderground v.1.15,2013-02-09 10:08:00,
2013-02-09 05:13:00,31.8,22.1,30.02,NW,315,24.0,29.0,67,0.00,,,0.00,Wunderground v.1.15,2013-02-09 10:13:00,
2013-02-09 05:18:00,31.8,22.4,30.02,NNW,329,28.0,29.0,68,0.00,,,0.00,Wunderground v.1.15,2013-02-09 10:18:00,
2013-02-09 05:24:00,31.8,23.5,30.02,NW,315,24.0,29.0,71,0.00,,,0.00,Wunderground v.1.15,2013-02-09 10:24:00,
2013-02-09 05:29:00,31.7,22.7,30.02,NW,309,27.0,31.0,69,0.00,,,0.00,Wunderground v.1.15,2013-02-09 10:29:00,
2013-02-09 05:35:00,31.6,22.2,30.02,NW,321,34.0,37.0,68,0.00,,,0.00,Wunderground v.1.15,2013-02-09 10:35:00,
2013-02-09 05:40:00,31.6,23.9,30.03,NNW,332,26.0,37.0,73,0.00,,,0.00,Wunderground v.1.15,2013-02-09 10:40:00,
2013-02-09 05:47:00,31.5,21.8,30.03,NW,312,35.0,38.0,67,0.00,,,0.00,Wunderground v.1.15,2013-02-09 10:47:00,
2013-02-09 05:52:00,31.4,22.1,30.04,NW,318,33.0,39.0,68,0.00,,,0.00,Wunderground v.1.15,2013-02-09 10:52:00,
2013-02-09 05:58:00,31.4,21.3,30.04,NW,321,31.0,40.0,66,0.00,,,0.00,Wunderground v.1.15,2013-02-09 10:58:00,
2013-02-09 06:03:00,31.2,21.2,30.04,NNW,330,37.0,37.0,66,0.00,,,0.00,Wunderground v.1.15,2013-02-09 11:03:00,
2013-02-09 06:09:00,31.2,22.5,30.04,NNW,328,30.0,40.0,70,0.00,,,0.00,Wunderground v.1.15,2013-02-09 11:09:00,
2013-02-09 06:14:00,31.2,22.5,30.04,NW,323,29.0,37.0,70,0.00,,,0.00,Wunderground v.1.15,2013-02-09 11:14:00,
2013-02-09 06:20:00,31.2,21.5,30.04,NNW,330,30.0,30.0,67,0.00,,,0.00,Wunderground v.1.15,2013-02-09 11:20:00,
2013-02-09 06:25:00,31.2,22.5,30.05,NNW,328,32.0,34.0,70,0.00,,,0.00,Wunderground v.1.15,2013-02-09 11:25:00,
2013-02-09 06:31:00,31.2,22.2,30.05,NW,323,30.0,30.0,69,0.00,,,0.00,Wunderground v.1.15,2013-02-09 11:31:00,
2013-02-09 06:36:00,31.0,21.7,30.06,NW,312,30.0,37.0,68,0.00,,,0.00,Wunderground v.1.15,2013-02-09 11:36:00,
2013-02-09 06:42:00,31.0,22.0,30.06,WNW,303,31.0,31.0,69,0.00,,,0.00,Wunderground v.1.15,2013-02-09 11:42:00,
2013-02-09 06:47:00,31.0,21.7,30.06,NW,323,31.0,34.0,68,0.00,,,0.00,Wunderground v.1.15,2013-02-09 11:47:00,
2013-02-09 06:53:00,31.0,21.7,30.07,NW,312,34.0,34.0,68,0.00,,,0.00,Wunderground v.1.15,2013-02-09 11:53:00,
2013-02-09 06:58:00,30.9,20.9,30.07,NW,315,29.0,35.0,66,0.00,,,0.00,Wunderground v.1.15,2013-02-09 11:58:00,
2013-02-09 07:04:00,30.8,21.5,30.08,NW,312,29.0,34.0,68,0.00,,,0.00,Wunderground v.1.15,2013-02-09 12:04:00,
2013-02-09 07:09:00,30.8,21.8,30.08,NW,309,23.0,38.0,69,0.00,,,0.00,Wunderground v.1.15,2013-02-09 12:09:00,
2013-02-09 07:15:00,30.7,21.7,30.08,NW,326,32.0,36.0,69,0.00,,,0.00,Wunderground v.1.15,2013-02-09 12:15:00,
2013-02-09 07:20:00,30.9,22.3,30.08,NW,309,21.0,36.0,70,0.00,,,0.00,Wunderground v.1.15,2013-02-09 12:20:00,
2013-02-09 07:26:00,30.8,21.5,30.08,WNW,301,27.0,37.0,68,0.00,,,0.00,Wunderground v.1.15,2013-02-09 12:26:00,
2013-02-09 07:31:00,30.7,21.4,30.08,NW,321,37.0,37.0,68,0.00,,,0.00,Wunderground v.1.15,2013-02-09 12:31:00,
2013-02-09 07:37:00,30.8,21.5,30.08,NW,326,29.0,35.0,68,0.00,,,0.00,Wunderground v.1.15,2013-02-09 12:37:00,
2013-02-09 07:42:00,30.8,22.5,30.08,NNW,334,24.0,35.0,71,0.00,,,0.00,Wunderground v.1.15,2013-02-09 12:42:00,
2013-02-09 07:48:00,30.7,21.4,30.08,NW,315,28.0,31.0,68,0.00,,,0.00,Wunderground v.1.15,2013-02-09 12:48:00,
2013-02-09 07:53:00,30.5,20.5,30.08,NNW,332,33.0,37.0,66,0.00,,,0.00,Wunderground v.1.15,2013-02-09 12:53:00,
2013-02-09 07:59:00,30.4,21.4,30.09,NW,325,32.0,36.0,69,0.00,,,0.00,Wunderground v.1.15,2013-02-09 12:59:00,
2013-02-09 08:05:00,30.4,20.7,30.09,NW,312,27.0,31.0,67,0.00,,,0.00,Wunderground v.1.15,2013-02-09 13:05:00,
2013-02-09 08:10:00,30.3,21.0,30.10,NW,315,34.0,34.0,68,0.00,,,0.00,Wunderground v.1.15,2013-02-09 13:10:00,
2013-02-09 08:16:00,30.3,20.6,30.10,NW,326,30.0,34.0,67,0.00,,,0.00,Wunderground v.1.15,2013-02-09 13:16:00,
2013-02-09 08:21:00,30.1,19.7,30.10,NW,322,27.0,28.0,65,0.00,,,0.00,Wunderground v.1.15,2013-02-09 13:21:00,
2013-02-09 08:27:00,30.2,21.2,30.11,NNW,329,29.0,32.0,69,0.00,,,0.00,Wunderground v.1.15,2013-02-09 13:27:00,
2013-02-09 08:32:00,30.2,20.9,30.11,NNW,348,26.0,28.0,68,0.00,,,0.00,Wunderground v.1.15,2013-02-09 13:32:00,
2013-02-09 08:37:00,30.2,21.2,30.11,NW,318,26.0,34.0,69,0.00,,,0.00,Wunderground v.1.15,2013-02-09 13:37:00,
2013-02-09 08:43:00,30.2,20.2,30.11,NW,326,34.0,34.0,66,0.00,,,0.00,Wunderground v.1.15,2013-02-09 13:43:00,
2013-02-09 08:48:00,29.9,20.3,30.12,NW,323,29.0,38.0,67,0.00,,,0.00,Wunderground v.1.15,2013-02-09 13:48:00,
2013-02-09 08:54:00,29.8,19.8,30.12,NW,315,26.0,28.0,66,0.00,,,0.00,Wunderground v.1.15,2013-02-09 13:54:00,
2013-02-09 09:00:00,30.0,20.4,30.13,NW,320,30.0,35.0,67,0.00,,,0.00,Wunderground v.1.15,2013-02-09 14:00:00,
2013-02-09 09:05:00,29.9,19.6,30.13,NW,314,27.0,32.0,65,0.00,,,0.00,Wunderground v.1.15,2013-02-09 14:05:00,
2013-02-09 09:11:00,29.8,19.5,30.13,NW,317,32.0,32.0,65,0.00,,,0.00,Wunderground v.1.15,2013-02-09 14:11:00,
2013-02-09 09:16:00,29.9,20.3,30.14,NW,319,28.0,35.0,67,0.00,,,0.00,Wunderground v.1.15,2013-02-09 14:16:00,
2013-02-09 09:22:00,30.0,19.7,30.15,NW,325,25.0,29.0,65,0.00,,,0.00,Wunderground v.1.15,2013-02-09 14:22:00,
2013-02-09 09:28:00,30.0,20.7,30.15,NW,312,27.0,34.0,68,0.00,,,0.00,Wunderground v.1.15,2013-02-09 14:28:00,
2013-02-09 09:33:00,29.9,19.9,30.15,NW,318,27.0,27.0,66,0.00,,,0.00,Wunderground v.1.15,2013-02-09 14:33:00,
2013-02-09 09:39:00,30.0,20.0,30.15,NNW,328,27.0,30.0,66,0.00,,,0.00,Wunderground v.1.15,2013-02-09 14:39:00,
2013-02-09 09:44:00,30.1,20.1,30.16,NW,316,25.0,27.0,66,0.00,,,0.00,Wunderground v.1.15,2013-02-09 14:44:00,
2013-02-09 09:50:00,30.0,20.4,30.16,NNW,330,24.0,28.0,67,0.00,,,0.00,Wunderground v.1.15,2013-02-09 14:50:00,
2013-02-09 09:55:00,29.9,20.3,30.16,NW,312,32.0,32.0,67,0.00,,,0.00,Wunderground v.1.15,2013-02-09 14:55:00,
2013-02-09 10:01:00,30.1,21.5,30.17,NW,308,29.0,29.0,70,0.00,,,0.00,Wunderground v.1.15,2013-02-09 15:01:00,
2013-02-09 10:06:00,30.1,19.7,30.17,NW,314,24.0,31.0,65,0.00,,,0.00,Wunderground v.1.15,2013-02-09 15:06:00,
2013-02-09 10:12:00,30.2,20.2,30.17,NW,326,28.0,28.0,66,0.00,,,0.00,Wunderground v.1.15,2013-02-09 15:12:00,
2013-02-09 10:18:00,30.3,20.6,30.17,NW,320,30.0,32.0,67,0.00,,,0.00,Wunderground v.1.15,2013-02-09 15:18:00,
2013-02-09 10:23:00,30.3,20.3,30.17,NW,316,30.0,30.0,66,0.00,,,0.00,Wunderground v.1.15,2013-02-09 15:23:00,
2013-02-09 10:29:00,30.4,20.4,30.17,NNW,332,22.0,31.0,66,0.00,,,0.00,Wunderground v.1.15,2013-02-09 15:29:00,
2013-02-09 10:34:00,30.5,21.2,30.17,NW,316,28.0,28.0,68,0.00,,,0.00,Wunderground v.1.15,2013-02-09 15:34:00,
2013-02-09 10:40:00,30.5,20.8,30.17,NNW,345,27.0,31.0,67,0.00,,,0.00,Wunderground v.1.15,2013-02-09 15:40:00,
2013-02-09 10:46:00,30.5,20.5,30.18,NNW,342,26.0,28.0,66,0.00,,,0.00,Wunderground v.1.15,2013-02-09 15:46:00,
2013-02-09 10:51:00,30.6,20.6,30.18,NNW,329,23.0,31.0,66,0.00,,,0.00,Wunderground v.1.15,2013-02-09 15:51:00,
2013-02-09 10:57:00,30.8,20.8,30.18,NW,323,22.0,30.0,66,0.00,,,0.00,Wunderground v.1.15,2013-02-09 15:57:00,
2013-02-09 11:02:00,30.8,19.7,30.18,NNW,330,21.0,24.0,63,0.00,,,0.00,Wunderground v.1.15,2013-02-09 16:02:00,
2013-02-09 11:08:00,31.0,21.7,30.19,NNW,329,25.0,32.0,68,0.00,,,0.00,Wunderground v.1.15,2013-02-09 16:08:00,
2013-02-09 11:13:00,31.0,21.0,30.19,NW,314,22.0,28.0,66,0.00,,,0.00,Wunderground v.1.15,2013-02-09 16:13:00,
2013-02-09 11:19:00,31.1,21.1,30.19,NNW,328,26.0,28.0,66,0.00,,,0.00,Wunderground v.1.15,2013-02-09 16:19:00,
2013-02-09 11:25:00,31.2,21.2,30.19,NW,325,25.0,26.0,66,0.00,,,0.00,Wunderground v.1.15,2013-02-09 16:25:00,
2013-02-09 11:30:00,31.2,21.2,30.20,NW,309,22.0,26.0,66,0.00,,,0.00,Wunderground v.1.15,2013-02-09 16:30:00,
2013-02-09 11:36:00,31.2,20.8,30.20,NW,316,27.0,27.0,65,0.00,,,0.00,Wunderground v.1.15,2013-02-09 16:36:00,
2013-02-09 11:41:00,31.4,21.0,30.20,NNW,328,18.0,27.0,65,0.00,,,0.00,Wunderground v.1.15,2013-02-09 16:41:00,
2013-02-09 11:47:00,31.4,21.0,30.20,NW,317,20.0,25.0,65,0.00,,,0.00,Wunderground v.1.15,2013-02-09 16:47:00,
2013-02-09 11:52:00,31.3,20.5,30.20,NW,323,20.0,26.0,64,0.00,,,0.00,Wunderground v.1.15,2013-02-09 16:52:00,
2013-02-09 11:58:00,31.5,21.8,30.19,NW,316,28.0,28.0,67,0.00,,,0.00,Wunderground v.1.15,2013-02-09 16:58:00,
2013-02-09 12:03:00,31.4,19.9,30.20,NW,316,24.0,26.0,62,0.00,,,0.00,Wunderground v.1.15,2013-02-09 17:03:00,
2013-02-09 12:09:00,31.7,20.2,30.20,NW,321,21.0,29.0,62,0.00,,,0.00,Wunderground v.1.15,2013-02-09 17:09:00,
2013-02-09 12:14:00,31.7,21.3,30.20,NW,321,25.0,28.0,65,0.00,,,0.00,Wunderground v.1.15,2013-02-09 17:14:00,
2013-02-09 12:20:00,31.9,21.5,30.19,NW,307,26.0,26.0,65,0.00,,,0.00,Wunderground v.1.15,2013-02-09 17:20:00,
2013-02-09 12:25:00,32.1,21.3,30.19,NNW,328,24.0,27.0,64,0.00,,,0.00,Wunderground v.1.15,2013-02-09 17:25:00,
2013-02-09 12:31:00,32.2,21.0,30.19,NW,319,21.0,24.0,63,0.00,,,0.00,Wunderground v.1.15,2013-02-09 17:31:00,
2013-02-09 12:36:00,32.3,20.7,30.19,NNW,328,27.0,28.0,62,0.00,,,0.00,Wunderground v.1.15,2013-02-09 17:36:00,
2013-02-09 12:42:00,32.4,20.8,30.19,NW,321,26.0,26.0,62,0.00,,,0.00,Wunderground v.1.15,2013-02-09 17:42:00,
2013-02-09 12:47:00,32.5,21.7,30.19,NW,306,29.0,30.0,64,0.00,,,0.00,Wunderground v.1.15,2013-02-09 17:47:00,
2013-02-09 12:53:00,32.8,22.0,30.20,NNW,345,25.0,25.0,64,0.00,,,0.00,Wunderground v.1.15,2013-02-09 17:53:00,
2013-02-09 12:58:00,32.9,21.7,30.20,NW,317,18.0,28.0,63,0.00,,,0.00,Wunderground v.1.15,2013-02-09 17:58:00,
2013-02-09 13:04:00,32.8,21.6,30.20,NNW,328,23.0,24.0,63,0.00,,,0.00,Wunderground v.1.15,2013-02-09 18:04:00,
2013-02-09 13:09:00,33.2,21.2,30.20,NW,321,17.0,25.0,61,0.00,,,0.00,Wunderground v.1.15,2013-02-09 18:09:00,
2013-02-09 13:15:00,33.1,21.9,30.20,NW,321,23.0,26.0,63,0.00,,,0.00,Wunderground v.1.15,2013-02-09 18:15:00,
2013-02-09 13:20:00,33.3,22.1,30.20,WNW,302,20.0,26.0,63,0.00,,,0.00,Wunderground v.1.15,2013-02-09 18:20:00,
2013-02-09 13:26:00,33.3,22.4,30.20,NW,323,18.0,25.0,64,0.00,,,0.00,Wunderground v.1.15,2013-02-09 18:26:00,
2013-02-09 13:31:00,33.6,21.2,30.20,NW,315,21.0,25.0,60,0.00,,,0.00,Wunderground v.1.15,2013-02-09 18:31:00,
2013-02-09 13:37:00,33.8,22.1,30.20,NW,309,20.0,24.0,62,0.00,,,0.00,Wunderground v.1.15,2013-02-09 18:37:00,
2013-02-09 13:42:00,33.9,22.6,30.21,WNW,302,21.0,24.0,63,0.00,,,0.00,Wunderground v.1.15,2013-02-09 18:42:00,
2013-02-09 13:48:00,33.9,21.5,30.21,NW,315,19.0,21.0,60,0.00,,,0.00,Wunderground v.1.15,2013-02-09 18:48:00,
2013-02-09 13:53:00,33.9,21.1,30.21,NNW,329,16.0,21.0,59,0.00,,,0.00,Wunderground v.1.15,2013-02-09 18:53:00,
2013-02-09 13:59:00,34.1,22.8,30.21,NW,320,19.0,21.0,63,0.00,,,0.00,Wunderground v.1.15,2013-02-09 18:59:00,
2013-02-09 14:05:00,34.1,21.7,30.21,NW,315,17.0,21.0,60,0.00,,,0.00,Wunderground v.1.15,2013-02-09 19:05:00,
2013-02-09 14:10:00,34.3,22.2,30.21,NW,309,18.0,18.0,61,0.00,,,0.00,Wunderground v.1.15,2013-02-09 19:10:00,
2013-02-09 14:16:00,34.4,21.1,30.20,NW,312,18.0,22.0,58,0.00,,,0.00,Wunderground v.1.15,2013-02-09 19:16:00,
2013-02-09 14:21:00,34.6,22.1,30.20,NW,317,16.0,17.0,60,0.00,,,0.00,Wunderground v.1.15,2013-02-09 19:21:00,
2013-02-09 14:27:00,34.7,21.8,30.20,NW,307,16.0,17.0,59,0.00,,,0.00,Wunderground v.1.15,2013-02-09 19:27:00,
2013-02-09 14:33:00,35.0,23.3,30.20,NW,324,12.0,15.0,62,0.00,,,0.00,Wunderground v.1.15,2013-02-09 19:33:00,
2013-02-09 14:39:00,34.9,21.2,30.21,NW,309,14.0,18.0,57,0.00,,,0.00,Wunderground v.1.15,2013-02-09 19:39:00,
2013-02-09 14:44:00,35.1,22.2,30.21,NW,304,15.0,17.0,59,0.00,,,0.00,Wunderground v.1.15,2013-02-09 19:44:00,
2013-02-09 14:49:00,35.3,22.0,30.22,NW,307,14.0,18.0,58,0.00,,,0.00,Wunderground v.1.15,2013-02-09 19:49:00,
2013-02-09 14:55:00,35.6,22.3,30.22,NW,314,17.0,17.0,58,0.00,,,0.00,Wunderground v.1.15,2013-02-09 19:55:00,
2013-02-09 15:01:00,35.7,22.8,30.22,NNW,336,14.0,16.0,59,0.00,,,0.00,Wunderground v.1.15,2013-02-09 20:01:00,
2013-02-09 15:06:00,35.8,22.0,30.22,NNW,328,15.0,20.0,57,0.00,,,0.00,Wunderground v.1.15,2013-02-09 20:06:00,
2013-02-09 15:12:00,36.0,24.6,30.22,NW,316,15.0,16.0,63,0.00,,,0.00,Wunderground v.1.15,2013-02-09 20:12:00,
2013-02-09 15:17:00,36.3,22.5,30.22,NW,320,16.0,17.0,57,0.00,,,0.00,Wunderground v.1.15,2013-02-09 20:17:00,
2013-02-09 15:23:00,36.4,23.4,30.23,NW,320,15.0,16.0,59,0.00,,,0.00,Wunderground v.1.15,2013-02-09 20:23:00,
2013-02-09 15:28:00,36.6,23.6,30.23,NNW,337,17.0,19.0,59,0.00,,,0.00,Wunderground v.1.15,2013-02-09 20:28:00,
2013-02-09 15:34:00,36.7,23.7,30.23,NNW,333,16.0,16.0,59,0.00,,,0.00,Wunderground v.1.15,2013-02-09 20:34:00,
2013-02-09 15:39:00,36.8,22.6,30.23,NW,325,19.0,20.0,56,0.00,,,0.00,Wunderground v.1.15,2013-02-09 20:39:00,
2013-02-09 15:45:00,37.0,22.7,30.23,NW,309,18.0,18.0,56,0.00,,,0.00,Wunderground v.1.15,2013-02-09 20:45:00,
2013-02-09 15:50:00,37.2,23.8,30.23,NW,326,13.0,20.0,58,0.00,,,0.00,Wunderground v.1.15,2013-02-09 20:50:00,
2013-02-09 15:56:00,37.1,23.7,30.24,NW,312,18.0,18.0,58,0.00,,,0.00,Wunderground v.1.15,2013-02-09 20:56:00,
2013-02-09 16:01:00,37.2,23.8,30.24,NW,320,17.0,17.0,58,0.00,,,0.00,Wunderground v.1.15,2013-02-09 21:01:00,
2013-02-09 16:07:00,37.4,25.2,30.24,NW,324,13.0,17.0,61,0.00,,,0.00,Wunderground v.1.15,2013-02-09 21:07:00,
2013-02-09 16:12:00,37.5,24.9,30.24,NW,321,14.0,15.0,60,0.00,,,0.00,Wunderground v.1.15,2013-02-09 21:12:00,
2013-02-09 16:18:00,37.6,25.0,30.24,NW,316,16.0,16.0,60,0.00,,,0.00,Wunderground v.1.15,2013-02-09 21:18:00,
2013-02-09 16:23:00,37.6,24.6,30.25,NW,320,14.0,18.0,59,0.00,,,0.00,Wunderground v.1.15,2013-02-09 21:23:00,
2013-02-09 16:29:00,37.7,25.1,30.25,NW,321,15.0,20.0,60,0.00,,,0.00,Wunderground v.1.15,2013-02-09 21:29:00,
2013-02-09 16:35:00,37.9,24.8,30.25,NNW,335,12.0,15.0,59,0.00,,,0.00,Wunderground v.1.15,2013-02-09 21:35:00,
2013-02-09 16:40:00,37.8,24.3,30.25,NNW,330,13.0,15.0,58,0.00,,,0.00,Wunderground v.1.15,2013-02-09 21:40:00,
2013-02-09 16:46:00,37.9,23.6,30.25,NNW,333,11.0,15.0,56,0.00,,,0.00,Wunderground v.1.15,2013-02-09 21:46:00,
2013-02-09 16:51:00,37.9,24.8,30.25,NW,326,10.0,15.0,59,0.00,,,0.00,Wunderground v.1.15,2013-02-09 21:51:00,
2013-02-09 16:57:00,37.9,24.8,30.25,NNW,330,10.0,14.0,59,0.00,,,0.00,Wunderground v.1.15,2013-02-09 21:57:00,
2013-02-09 17:04:00,37.9,24.8,30.26,NNW,330,11.0,12.0,59,0.00,,,0.00,Wunderground v.1.15,2013-02-09 22:04:00,
2013-02-09 17:09:00,37.8,24.3,30.26,NNW,340,10.0,14.0,58,0.00,,,0.00,Wunderground v.1.15,2013-02-09 22:09:00,
2013-02-09 17:15:00,37.8,24.7,30.26,NNW,333,9.0,15.0,59,0.00,,,0.00,Wunderground v.1.15,2013-02-09 22:15:00,
2013-02-09 17:20:00,37.7,24.6,30.26,NNW,336,11.0,11.0,59,0.00,,,0.00,Wunderground v.1.15,2013-02-09 22:20:00,
2013-02-09 17:26:00,37.5,24.9,30.26,NNW,330,8.0,19.0,60,0.00,,,0.00,Wunderground v.1.15,2013-02-09 22:26:00,
2013-02-09 17:31:00,37.3,24.3,30.26,NNW,336,9.0,11.0,59,0.00,,,0.00,Wunderground v.1.15,2013-02-09 22:31:00,
2013-02-09 17:37:00,37.1,24.5,30.27,NNW,328,11.0,13.0,60,0.00,,,0.00,Wunderground v.1.15,2013-02-09 22:37:00,
2013-02-09 17:42:00,37.1,24.1,30.27,NW,323,11.0,11.0,59,0.00,,,0.00,Wunderground v.1.15,2013-02-09 22:42:00,
2013-02-09 17:48:00,37.0,24.8,30.27,NW,326,11.0,15.0,61,0.00,,,0.00,Wunderground v.1.15,2013-02-09 22:48:00,
2013-02-09 17:54:00,37.0,27.1,30.27,NNW,333,12.0,12.0,67,0.00,,,0.00,Wunderground v.1.15,2013-02-09 22:54:00,
2013-02-09 17:59:00,37.0,25.9,30.28,NNW,332,12.0,15.0,64,0.00,,,0.00,Wunderground v.1.15,2013-02-09 22:59:00,
2013-02-09 18:05:00,37.0,25.9,30.28,NW,325,12.0,14.0,64,0.00,,,0.00,Wunderground v.1.15,2013-02-09 23:05:00,
2013-02-09 18:11:00,37.0,25.6,30.28,NW,326,11.0,12.0,63,0.00,,,0.00,Wunderground v.1.15,2013-02-09 23:11:00,
2013-02-09 18:16:00,36.9,25.5,30.28,NNW,332,9.0,12.0,63,0.00,,,0.00,Wunderground v.1.15,2013-02-09 23:16:00,
2013-02-09 18:22:00,36.9,25.9,30.28,NNW,335,9.0,10.0,64,0.00,,,0.00,Wunderground v.1.15,2013-02-09 23:22:00,
2013-02-09 18:27:00,36.8,26.1,30.28,NW,326,9.0,11.0,65,0.00,,,0.00,Wunderground v.1.15,2013-02-09 23:27:00,
2013-02-09 18:33:00,36.7,26.4,30.29,NW,322,7.0,9.0,66,0.00,,,0.00,Wunderground v.1.15,2013-02-09 23:33:00,
2013-02-09 18:38:00,36.7,26.8,30.29,NW,316,8.0,11.0,67,0.00,,,0.00,Wunderground v.1.15,2013-02-09 23:38:00,
2013-02-09 18:44:00,36.8,27.9,30.29,NW,317,10.0,10.0,70,0.00,,,0.00,Wunderground v.1.15,2013-02-09 23:44:00,
2013-02-09 18:49:00,37.0,25.2,30.29,NW,309,13.0,18.0,62,0.00,,,0.00,Wunderground v.1.15,2013-02-09 23:49:00,
2013-02-09 18:55:00,37.1,24.9,30.30,NW,310,12.0,13.0,61,0.00,,,0.00,Wunderground v.1.15,2013-02-09 23:55:00,
2013-02-09 19:01:00,37.1,24.5,30.30,NW,308,13.0,13.0,60,0.00,,,0.00,Wunderground v.1.15,2013-02-10 00:01:00,
2013-02-09 19:06:00,37.0,24.0,30.30,NW,326,11.0,14.0,59,0.00,,,0.00,Wunderground v.1.15,2013-02-10 00:06:00,
2013-02-09 19:12:00,37.0,23.6,30.30,WNW,302,13.0,13.0,58,0.00,,,0.00,Wunderground v.1.15,2013-02-10 00:12:00,
2013-02-09 19:18:00,37.0,25.2,30.30,NW,312,11.0,14.0,62,0.00,,,0.00,Wunderground v.1.15,2013-02-10 00:18:00,
2013-02-09 19:23:00,36.9,24.7,30.30,NW,308,9.0,11.0,61,0.00,,,0.00,Wunderground v.1.15,2013-02-10 00:23:00,
2013-02-09 19:29:00,36.7,24.9,30.31,WNW,296,9.0,11.0,62,0.00,,,0.00,Wunderground v.1.15,2013-02-10 00:29:00,
2013-02-09 19:34:00,36.7,24.1,30.31,NW,309,11.0,11.0,60,0.00,,,0.00,Wunderground v.1.15,2013-02-10 00:34:00,
2013-02-09 19:40:00,36.6,24.0,30.31,NW,309,9.0,11.0,60,0.00,,,0.00,Wunderground v.1.15,2013-02-10 00:40:00,
2013-02-09 19:45:00,36.5,25.1,30.31,WNW,300,9.0,9.0,63,0.00,,,0.00,Wunderground v.1.15,2013-02-10 00:45:00,
2013-02-09 19:51:00,36.4,24.6,30.32,WNW,300,11.0,11.0,62,0.00,,,0.00,Wunderground v.1.15,2013-02-10 00:51:00,
2013-02-09 19:57:00,36.3,25.3,30.32,NW,304,8.0,9.0,64,0.00,,,0.00,Wunderground v.1.15,2013-02-10 00:57:00,
2013-02-09 20:02:00,36.2,24.8,30.32,NW,308,6.0,9.0,63,0.00,,,0.00,Wunderground v.1.15,2013-02-10 01:02:00,
2013-02-09 20:08:00,36.2,24.8,30.32,NW,323,8.0,10.0,63,0.00,,,0.00,Wunderground v.1.15,2013-02-10 01:08:00,
2013-02-09 20:13:00,36.1,23.5,30.33,NW,308,9.0,10.0,60,0.00,,,0.00,Wunderground v.1.15,2013-02-10 01:13:00,
2013-02-09 20:19:00,36.1,24.3,30.33,WNW,296,9.0,10.0,62,0.00,,,0.00,Wunderground v.1.15,2013-02-10 01:19:00,
2013-02-09 20:25:00,36.0,24.2,30.33,WNW,302,9.0,10.0,62,0.00,,,0.00,Wunderground v.1.15,2013-02-10 01:25:00,
2013-02-09 20:31:00,35.9,23.7,30.33,NW,315,7.0,8.0,61,0.00,,,0.00,Wunderground v.1.15,2013-02-10 01:31:00,
2013-02-09 20:36:00,35.9,24.5,30.33,NW,309,6.0,8.0,63,0.00,,,0.00,Wunderground v.1.15,2013-02-10 01:36:00,
2013-02-09 20:41:00,35.9,24.1,30.33,NW,308,7.0,7.0,62,0.00,,,0.00,Wunderground v.1.15,2013-02-10 01:41:00,
2013-02-09 20:47:00,35.9,23.7,30.33,NW,309,7.0,9.0,61,0.00,,,0.00,Wunderground v.1.15,2013-02-10 01:47:00,
2013-02-09 20:52:00,35.8,24.0,30.33,NW,304,9.0,11.0,62,0.00,,,0.00,Wunderground v.1.15,2013-02-10 01:52:00,
2013-02-09 20:58:00,35.7,24.3,30.33,NW,309,8.0,11.0,63,0.00,,,0.00,Wunderground v.1.15,2013-02-10 01:58:00,
2013-02-09 21:03:00,35.7,25.1,30.33,NW,315,7.0,9.0,65,0.00,,,0.00,Wunderground v.1.15,2013-02-10 02:03:00,
2013-02-09 21:09:00,35.6,23.9,30.33,NW,309,8.0,9.0,62,0.00,,,0.00,Wunderground v.1.15,2013-02-10 02:09:00,
2013-02-09 21:15:00,35.6,23.9,30.33,WNW,300,9.0,9.0,62,0.00,,,0.00,Wunderground v.1.15,2013-02-10 02:15:00,
2013-02-09 21:21:00,35.5,23.4,30.33,WNW,300,9.0,11.0,61,0.00,,,0.00,Wunderground v.1.15,2013-02-10 02:21:00,
2013-02-09 21:26:00,35.5,24.5,30.33,WNW,302,11.0,11.0,64,0.00,,,0.00,Wunderground v.1.15,2013-02-10 02:26:00,
2013-02-09 21:32:00,35.5,23.8,30.33,NW,316,9.0,10.0,62,0.00,,,0.00,Wunderground v.1.15,2013-02-10 02:32:00,
2013-02-09 21:37:00,35.5,24.1,30.34,NW,317,9.0,11.0,63,0.00,,,0.00,Wunderground v.1.15,2013-02-10 02:37:00,
2013-02-09 21:43:00,35.5,24.1,30.34,WNW,300,9.0,9.0,63,0.00,,,0.00,Wunderground v.1.15,2013-02-10 02:43:00,
2013-02-09 21:49:00,35.5,24.1,30.35,WNW,300,10.0,10.0,63,0.00,,,0.00,Wunderground v.1.15,2013-02-10 02:49:00,
2013-02-09 21:54:00,35.5,23.8,30.35,NW,308,8.0,9.0,62,0.00,,,0.00,Wunderground v.1.15,2013-02-10 02:54:00,
2013-02-09 22:00:00,35.5,24.5,30.35,WNW,300,10.0,10.0,64,0.00,,,0.00,Wunderground v.1.15,2013-02-10 03:00:00,
2013-02-09 22:05:00,35.4,24.4,30.35,WNW,300,10.0,10.0,64,0.00,,,0.00,Wunderground v.1.15,2013-02-10 03:05:00,
2013-02-09 22:11:00,35.3,24.7,30.35,WNW,302,7.0,9.0,65,0.00,,,0.00,Wunderground v.1.15,2013-02-10 03:11:00,
2013-02-09 22:16:00,35.3,24.7,30.35,NW,311,9.0,11.0,65,0.00,,,0.00,Wunderground v.1.15,2013-02-10 03:16:00,
2013-02-09 22:22:00,35.2,25.0,30.35,NW,307,8.0,9.0,66,0.00,,,0.00,Wunderground v.1.15,2013-02-10 03:22:00,
2013-02-09 22:27:00,35.1,24.5,30.35,NW,309,7.0,10.0,65,0.00,,,0.00,Wunderground v.1.15,2013-02-10 03:27:00,
2013-02-09 22:33:00,35.1,24.5,30.36,NW,312,9.0,9.0,65,0.00,,,0.00,Wunderground v.1.15,2013-02-10 03:33:00,
2013-02-09 22:38:00,35.0,23.3,30.36,NW,312,9.0,11.0,62,0.00,,,0.00,Wunderground v.1.15,2013-02-10 03:38:00,
2013-02-09 22:44:00,35.1,24.1,30.36,NW,318,7.0,9.0,64,0.00,,,0.00,Wunderground v.1.15,2013-02-10 03:44:00,
2013-02-09 22:49:00,35.0,23.7,30.36,NW,316,8.0,10.0,63,0.00,,,0.00,Wunderground v.1.15,2013-02-10 03:49:00,
2013-02-09 22:55:00,34.9,23.6,30.36,North,349,8.0,8.0,63,0.00,,,0.00,Wunderground v.1.15,2013-02-10 03:55:00,
2013-02-09 23:01:00,35.0,23.3,30.36,NNW,338,12.0,12.0,62,0.00,,,0.00,Wunderground v.1.15,2013-02-10 04:01:00,
2013-02-09 23:06:00,35.2,22.3,30.36,NNW,329,14.0,15.0,59,0.00,,,0.00,Wunderground v.1.15,2013-02-10 04:06:00,
2013-02-09 23:12:00,35.1,22.2,30.36,NNW,345,11.0,13.0,59,0.00,,,0.00,Wunderground v.1.15,2013-02-10 04:12:00,
2013-02-09 23:18:00,34.9,22.4,30.36,NNW,334,10.0,14.0,60,0.00,,,0.00,Wunderground v.1.15,2013-02-10 04:18:00,
2013-02-09 23:23:00,34.5,22.0,30.36,NNW,337,8.0,10.0,60,0.00,,,0.00,Wunderground v.1.15,2013-02-10 04:23:00,
2013-02-09 23:29:00,34.3,22.2,30.36,North,360,7.0,10.0,61,0.00,,,0.00,Wunderground v.1.15,2013-02-10 04:29:00,
2013-02-09 23:34:00,33.9,21.9,30.37,NNE,25,4.0,6.0,61,0.00,,,0.00,Wunderground v.1.15,2013-02-10 04:34:00,
2013-02-09 23:40:00,33.5,21.9,30.36,North,360,6.0,7.0,62,0.00,,,0.00,Wunderground v.1.15,2013-02-10 04:40:00,
2013-02-09 23:45:00,33.2,22.0,30.36,NNE,21,4.0,4.0,63,0.00,,,0.00,Wunderground v.1.15,2013-02-10 04:45:00,
2013-02-09 23:51:00,32.9,22.0,30.37,North,354,3.0,7.0,64,0.00,,,0.00,Wunderground v.1.15,2013-02-10 04:51:00,
2013-02-09 23:56:00,32.7,22.2,30.37,North,357,4.0,4.0,65,0.00,,,0.00,Wunderground v.1.15,2013-02-10 04:56:00,